Location: Sungai Laei
(2.6000°N, 113.7167°E)
Time: 11:01:46
(UTC+00:00)

ATLAS 5 CENTAUR R/B - Pass Details

Date: 22 May 2022
Orbit: 479 x 1172 km, 63.3° (Epoch: 05 July)

Event Time Altitude Azimuth Distance (km) Brightness Sun altitude
Rises 12:21:53 0° 340° (NNW) 3,695 6.1 -26.9°
Reaches altitude 10° 12:24:21 10° 342° (NNW) 2,830 5.4 -27.5°
Maximum altitude 12:31:14 76° 68° (ENE) 1,162 2.6 -29.0°
Enters shadow 12:31:47 72° 106° (ESE) 1,187 2.6 -29.1°
